[[{"header":{"parameterUnit":"m.s-1","parameterCategory":1,"la1":30.2991,"la2":30.254,"lo1":-89.0895,"lo2":-89.0444,"dy":0.0017,"dx":0.0017,"nx":28,"ny":28,"refTime":"2024-04-29T21:00:00:Z","depth":0,"parameterNumber":2,"parameterNumberName":"U-component_of_WINDS"},"data":[0,0,0,0,0,0,0,0,0,0,0,0,0,0,0,0,0,0,0,0,0,0,0,0,0,0,0,0,0,0,0,0,0,0,0,0,0,0,0,0,0,0,0,0,0,0,0,0,0,0,0,0,0,0,0,0,0,0,-0.6078,-0.6078,0,-0.6065,-0.6065,-0.6065,-0.6059,-0.6059,-0.6059,-0.6059,-0.6043,-0.6043,-0.6042,0,0,0,0,0,0,0,0,0,0,0,0,0,-0.6096,-0.6096,-0.6078,-0.6078,-0.6078,-0.6065,-0.6065,-0.6065,-0.6059,-0.6059,-0.6059,-0.6059,-0.6043,-0.6043,-0.6042,0,0,0,0,0,0,0,0,0,0,0,0,0,-0.6086,-0.6096,-0.6079,-0.6073,-0.6073,-0.6065,-0.6065,-0.6065,-0.6059,-0.6059,-0.6059,-0.6059,-0.6043,-0.6043,-0.6042,-0.6038,0,0,-0.604,-0.604,0,0,0,0,0,0,0,0,-0.6087,-0.6086,-0.6074,-0.6074,-0.6073,-0.6064,-0.6066,-0.6056,-0.6059,-0.6064,-0.6059,-0.6059,-0.605,-0.6049,-0.6046,-0.6038,-0.6037,-0.604,-0.604,-0.604,-0.604,0,0,0,0,0,0,0,-0.6088,-0.6086,-0.6073,-0.6074,-0.6073,-0.6071,-0.607,-0.6064,-0.6057,-0.6063,-0.6063,-0.6062,-0.605,-0.6047,-0.6046,-0.6037,-0.604,-0.604,-0.6039,-0.6039,-0.6024,-0.6024,0,0,0,0,0,0,-0.6089,-0.6087,-0.6074,-0.6073,-0.608,-0.6071,-0.6069,-0.6067,-0.6057,-0.6056,-0.6062,-0.6061,-0.6048,-0.6047,-0.6045,-0.604,-0.604,-0.6039,-0.6039,-0.6024,-0.6024,-0.6024,0,0,0,0,0,0,-0.609,-0.6088,-0.6074,-0.608,-0.6078,-0.6071,-0.6068,-0.6066,-0.6064,-0.6056,-0.6054,-0.606,-0.6048,-0.6046,-0.604,-0.6039,-0.6039,-0.6038,-0.6024,-0.6024,-0.6024,-0.603,0,0,0,0,0,0,-0.609,-0.6088,-0.6087,-0.608,-0.6078,-0.607,-0.6068,-0.6066,-0.6063,-0.6062,-0.6054,-0.6053,-0.6048,-0.6041,-0.604,-0.6039,-0.6038,-0.6024,-0.6024,-0.6024,-0.603,-0.603,-0.603,0,0,0,0,0,-0.6091,-0.6089,-0.6087,-0.6086,-0.6076,-0.607,-0.6069,-0.6064,-0.6063,-0.6061,-0.6056,-0.6053,-0.604,-0.6041,-0.6039,-0.6038,-0.6024,-0.6024,-0.6024,-0.6029,-0.603,-0.603,0,0,0,0,0,0,-0.6096,-0.6088,-0.6086,-0.6081,-0.6077,-0.6069,-0.6067,-0.6064,-0.6059,-0.6059,-0.6052,-0.605,-0.6045,-0.6041,-0.6042,-0.6033,-0.6032,-0.6031,-0.6036,-0.6037,-0.6037,-0.6038,-0.6037,0,0,0,0,0,-0.6096,-0.6093,-0.6086,-0.6082,-0.608,-0.6074,-0.6071,-0.6068,-0.6062,-0.606,-0.6054,-0.6048,-0.6043,-0.604,-0.6034,-0.6029,-0.6027,-0.6027,-0.6027,-0.6028,-0.6027,-0.6024,-0.6024,-0.6024,-0.6024,-0.6024,0,0,-0.6097,-0.6093,-0.6091,-0.6083,-0.6079,-0.6075,-0.6072,-0.6068,-0.6065,-0.6059,-0.6053,-0.6049,-0.6042,-0.6037,-0.6034,-0.6033,-0.6027,-0.6028,-0.6028,-0.6027,-0.6024,-0.6024,-0.6024,-0.6024,-0.6024,-0.6024,0,0,-0.6097,-0.6094,-0.6091,-0.6087,-0.608,-0.6076,-0.6076,-0.6069,-0.6066,-0.606,-0.6056,-0.6052,-0.6042,-0.6038,-0.6034,-0.6032,-0.6029,-0.6031,-0.6032,-0.6029,-0.6029,-0.6029,-0.6029,-0.6029,-0.603,-0.603,-0.6031,0,-0.6099,-0.6094,-0.6089,-0.6085,-0.6082,-0.6077,-0.6074,-0.607,-0.6062,-0.606,-0.6059,-0.6048,-0.6043,-0.6036,-0.6036,-0.6033,-0.6032,-0.6032,-0.603,-0.603,-0.603,-0.6029,-0.6029,-0.6031,-0.6031,-0.6031,-0.6031,0,-0.6096,-0.6092,-0.6091,-0.6084,-0.6081,-0.6077,-0.6071,-0.6068,-0.6065,-0.6061,-0.6055,-0.6049,-0.6043,-0.6041,-0.6037,-0.6034,-0.6033,-0.6031,-0.6029,-0.603,-0.6029,-0.6029,-0.6031,-0.6031,-0.6031,-0.6031,0,0,-0.6099,-0.609,-0.6089,-0.6086,-0.608,-0.6076,-0.6072,-0.6066,-0.6064,-0.6058,-0.6055,-0.6047,-0.6046,-0.6041,-0.6037,-0.6035,-0.6034,-0.6033,-0.6033,-0.6034,-0.6029,-0.6031,-0.6031,-0.6032,-0.6032,-0.6032,-0.603,0,-0.6098,-0.6091,-0.6087,-0.6082,-0.6078,-0.6074,-0.607,-0.6065,-0.6061,-0.6057,-0.6052,-0.6047,-0.6045,-0.6043,-0.604,-0.6035,-0.6033,-0.6035,-0.6028,-0.6028,-0.603,-0.6031,-0.6032,-0.6031,-0.603,-0.603,-0.603,0,-0.6096,-0.6091,-0.6086,-0.608,-0.6078,-0.6075,-0.6069,-0.6065,-0.606,-0.6057,-0.6053,-0.6049,-0.6044,-0.6043,-0.6036,-0.6037,-0.6034,-0.6031,-0.6031,-0.603,-0.6029,-0.603,-0.603,-0.603,-0.6029,-0.6029,-0.6029,0,-0.6098,-0.6091,-0.6087,-0.6084,-0.6077,-0.6075,-0.6071,-0.6066,-0.6063,-0.6057,-0.6055,-0.6049,-0.6046,-0.6041,-0.6036,-0.6035,-0.6029,-0.6028,-0.6026,-0.6027,-0.6025,-0.6025,-0.6026,-0.6023,-0.6023,-0.6023,-0.6023,0,-0.6097,-0.6094,-0.6088,-0.6085,-0.6081,-0.6076,-0.6073,-0.6069,-0.6064,-0.606,-0.6056,-0.6052,-0.6045,-0.6041,-0.6036,-0.6031,-0.603,-0.6027,-0.6026,-0.6027,-0.6028,-0.6025,-0.6025,-0.6023,-0.6023,-0.6023,-0.6023,0,-0.6099,-0.6095,-0.609,-0.6084,-0.6082,-0.6079,-0.6074,-0.6071,-0.6067,-0.6062,-0.6061,-0.6054,-0.6049,-0.6043,-0.6035,-0.6032,-0.6027,-0.6025,-0.6029,-0.6029,-0.6028,-0.6028,-0.6026,-0.6026,-0.6024,-0.6024,-0.6024,0,-0.6099,-0.6097,-0.609,-0.6088,-0.6085,-0.6081,-0.6078,-0.6073,-0.6069,-0.6063,-0.6061,-0.6055,-0.605,-0.6041,-0.6036,-0.603,-0.6028,-0.6028,-0.6027,-0.6029,-0.6028,-0.6028,-0.6028,-0.6028,-0.6028,-0.6028,-0.6028,0,-0.6099,-0.6097,-0.6093,-0.6089,-0.6085,-0.6081,-0.6077,-0.6075,-0.6069,-0.6065,-0.606,-0.6056,-0.6049,-0.6043,-0.6037,-0.6033,-0.6029,-0.6028,-0.6028,-0.6029,-0.6032,-0.603,-0.603,-0.6028,-0.6028,-0.6028,-0.6028,-0.6028,-0.61,-0.6098,-0.6093,-0.6089,-0.6085,-0.6081,-0.6078,-0.6074,-0.607,-0.6064,-0.6061,-0.6056,-0.605,-0.6041,-0.6037,-0.6032,-0.6031,-0.603,-0.603,-0.603,-0.603,-0.6032,-0.6031,-0.6031,-0.6031,-0.6031,-0.6031,0,-0.61,-0.6097,-0.6093,-0.6087,-0.6084,-0.6082,-0.6077,-0.6074,-0.607,-0.6065,-0.606,-0.6054,-0.6049,-0.6043,-0.6037,-0.6034,-0.6032,-0.6033,-0.6033,-0.6032,-0.6032,-0.6033,-0.6034,-0.6034,-0.6034,-0.6034,-0.6034,-0.6034,-0.61,-0.6096,-0.6093,-0.6087,-0.6084,-0.6079,-0.6077,-0.6073,-0.6069,-0.6063,-0.6058,-0.6055,-0.6049,-0.6043,-0.6038,-0.6036,-0.6034,-0.6035,-0.6032,-0.6032,-0.6032,-0.6032,-0.6033,-0.6034,-0.6034,-0.6033,-0.6033,-0.6033]},{"header":{"parameterUnit":"m.s-1","parameterCategory":1,"la1":30.2991,"la2":30.254,"lo1":-89.0895,"lo2":-89.0444,"dy":0.0017,"dx":0.0017,"nx":28,"ny":28,"refTime":"2024-04-29T21:00:00:Z","depth":0,"parameterNumber":3,"parameterNumberName":"V-component_of_WINDS"},"data":[0,0,0,0,0,0,0,0,0,0,0,0,0,0,0,0,0,0,0,0,0,0,0,0,0,0,0,0,0,0,0,0,0,0,0,0,0,0,0,0,0,0,0,0,0,0,0,0,0,0,0,0,0,0,0,0,0,0,2.5935,2.5935,0,2.598,2.5981,2.5981,2.596,2.5959,2.5958,2.5957,2.5999,2.6001,2.6003,0,0,0,0,0,0,0,0,0,0,0,0,0,2.5826,2.5828,2.5935,2.5935,2.5936,2.598,2.5981,2.5981,2.5961,2.5959,2.5958,2.5957,2.5998,2.6001,2.6003,0,0,0,0,0,0,0,0,0,0,0,0,0,2.5872,2.5828,2.5935,2.5931,2.5931,2.598,2.5981,2.5981,2.5961,2.5959,2.5958,2.5956,2.5997,2.6001,2.6004,2.6057,0,0,2.6014,2.6015,0,0,0,0,0,0,0,0,2.5869,2.5876,2.5931,2.5931,2.5932,2.5963,2.5957,2.6007,2.5961,2.5949,2.5957,2.5955,2.5988,2.5992,2.6004,2.6059,2.6061,2.6014,2.6016,2.6017,2.6018,0,0,0,0,0,0,0,2.5866,2.5874,2.5952,2.5932,2.5932,2.5926,2.593,2.5967,2.5977,2.595,2.5949,2.5955,2.5988,2.6001,2.6005,2.6062,2.6014,2.6017,2.6019,2.602,2.6162,2.6164,0,0,0,0,0,0,2.5864,2.5871,2.5951,2.5954,2.5896,2.5929,2.5934,2.5954,2.5977,2.5979,2.5956,2.5954,2.5996,2.6001,2.6006,2.607,2.6017,2.602,2.6022,2.616,2.6162,2.6164,0,0,0,0,0,0,2.5861,2.5871,2.5949,2.5912,2.5922,2.5933,2.5955,2.5956,2.5969,2.5982,2.5983,2.5968,2.5995,2.6002,2.6045,2.6071,2.6022,2.6025,2.6158,2.6161,2.6163,2.6198,0,0,0,0,0,0,2.5858,2.587,2.5892,2.5913,2.5924,2.5989,2.5957,2.5958,2.5976,2.5973,2.5993,2.5995,2.5994,2.604,2.6048,2.6075,2.6027,2.6156,2.6159,2.6163,2.6195,2.6202,2.6208,0,0,0,0,0,2.5855,2.5899,2.5893,2.5903,2.5951,2.599,2.5996,2.5996,2.5978,2.5999,2.6006,2.5994,2.6067,2.6045,2.6053,2.6082,2.6154,2.6158,2.6162,2.6192,2.6201,2.6208,0,0,0,0,0,0,2.5879,2.5902,2.5895,2.5948,2.5968,2.5987,2.6013,2.6006,2.6029,2.6026,2.6023,2.6028,2.6073,2.6081,2.6056,2.6134,2.6107,2.6114,2.6127,2.6135,2.6142,2.6139,2.603,0,0,0,0,0,2.5891,2.5922,2.594,2.5985,2.5995,2.6003,2.6019,2.6018,2.6037,2.6045,2.6056,2.6074,2.6101,2.6118,2.6144,2.6196,2.62,2.6219,2.6226,2.6231,2.6237,2.6264,2.6273,2.6178,2.6178,2.6178,0,0,2.5915,2.5931,2.5951,2.599,2.6005,2.6036,2.6009,2.6043,2.6066,2.6049,2.6092,2.61,2.612,2.6168,2.6189,2.6176,2.6264,2.6237,2.6241,2.6243,2.6269,2.6278,2.6286,2.6181,2.618,2.618,0,0,2.5975,2.5991,2.6031,2.6046,2.607,2.6074,2.6084,2.6104,2.611,2.6152,2.614,2.6166,2.6213,2.6227,2.6241,2.6306,2.6295,2.6314,2.6349,2.6376,2.6383,2.639,2.6413,2.6421,2.632,2.632,2.632,0,2.6002,2.605,2.6051,2.6087,2.6103,2.6091,2.613,2.6145,2.6174,2.6186,2.6171,2.6229,2.6242,2.6293,2.6309,2.632,2.633,2.6312,2.6382,2.6389,2.6395,2.6417,2.6426,2.6322,2.6322,2.6321,2.6321,0,2.6082,2.6115,2.6144,2.6175,2.6195,2.6232,2.6237,2.6256,2.6253,2.6259,2.6301,2.6316,2.6344,2.6356,2.6352,2.6406,2.6398,2.6383,2.6356,2.6406,2.6427,2.6435,2.6325,2.6324,2.6324,2.6323,0,0,2.6159,2.619,2.6201,2.6215,2.6239,2.6264,2.63,2.6329,2.6346,2.6366,2.6396,2.6435,2.6422,2.6437,2.6435,2.6459,2.6509,2.6441,2.6441,2.6453,2.6569,2.658,2.659,2.6502,2.6504,2.6505,2.6567,0,2.6221,2.6286,2.6287,2.6346,2.6376,2.6365,2.6395,2.6413,2.6419,2.6445,2.6451,2.6479,2.6459,2.6468,2.6491,2.6498,2.6533,2.6494,2.6528,2.6529,2.6524,2.6601,2.6613,2.6671,2.6575,2.6577,2.6578,0,2.6302,2.6328,2.639,2.641,2.6423,2.6451,2.6477,2.6502,2.6521,2.6524,2.6541,2.6535,2.657,2.6542,2.6589,2.6563,2.6577,2.6582,2.6585,2.6588,2.6557,2.6606,2.669,2.6699,2.6591,2.659,2.6589,0,2.6353,2.6401,2.6445,2.6457,2.6482,2.6502,2.6513,2.653,2.6548,2.657,2.6581,2.6607,2.6621,2.664,2.6641,2.6621,2.6688,2.6661,2.6691,2.6691,2.6706,2.6705,2.6793,2.6715,2.6714,2.6714,2.6714,0,2.6422,2.646,2.6468,2.6495,2.6537,2.6537,2.6578,2.6587,2.6603,2.663,2.6621,2.6646,2.6646,2.6671,2.6671,2.671,2.6716,2.6719,2.6718,2.672,2.6719,2.6729,2.6725,2.6717,2.6716,2.6716,2.6715,0,2.6485,2.6492,2.6539,2.6559,2.6564,2.6595,2.6611,2.6635,2.6641,2.6675,2.6683,2.6691,2.672,2.6723,2.6756,2.6756,2.6804,2.6799,2.6798,2.6797,2.6827,2.6824,2.6924,2.6937,2.685,2.6851,2.6852,0,2.6529,2.6558,2.6582,2.66,2.6613,2.6642,2.666,2.6661,2.668,2.6704,2.6726,2.6754,2.6777,2.6824,2.6832,2.6857,2.6853,2.6886,2.6856,2.6857,2.6853,2.6852,2.6854,2.6892,2.6893,2.6894,2.6894,0,2.6606,2.6608,2.6635,2.6664,2.6686,2.6708,2.6728,2.6743,2.6747,2.6768,2.6799,2.6816,2.6851,2.6879,2.6904,2.6913,2.6904,2.6903,2.6912,2.6913,2.6912,2.6913,2.6813,2.6901,2.69,2.69,2.69,2.6899,2.6661,2.6687,2.6708,2.6738,2.6754,2.6773,2.6797,2.6806,2.6832,2.6862,2.686,2.6894,2.6911,2.6944,2.6955,2.698,2.6969,2.6981,2.6984,2.6987,2.699,2.6908,2.6985,2.6985,2.6984,2.6984,2.6984,0,2.6738,2.6751,2.6779,2.6809,2.6832,2.6823,2.6845,2.6865,2.6895,2.6913,2.6936,2.6971,2.6998,2.7008,2.7034,2.7052,2.7049,2.7059,2.7058,2.706,2.6999,2.6989,2.7062,2.7062,2.7062,2.7062,2.7062,2.7062,2.6781,2.6823,2.6828,2.6878,2.689,2.6924,2.6938,2.6955,2.6969,2.7009,2.7032,2.7039,2.7053,2.708,2.7105,2.7107,2.7117,2.7129,2.7129,2.7072,2.7064,2.7057,2.7048,2.7131,2.7131,2.7188,2.7189,2.7189]}]]